Content
SEND FEEDBACK

Daily
Averages
Monthly
Summary
United States of America

HART LAKE, FLORIDA


Home > North America > United States > Florida
Elevation: 7 feet     Latitude: 28 23N     Longitude: 081 13W

WEATHER
 
SELECT A DAY
Number of Records: 197,236;   Date Range: 1/1/95 - 9/16/14
 
SHARE

PRINT THIS DATA

[ ← Previous Day ]
WEATHER ALMANAC - JANUARY 31, 2013
[ Next Day → ]
[ °C ]   °F
Weather ElementAverageHighLow
Temperature58.8 °F70 °F (1:53 am)50 °F (11:53 pm)
Dewpoint43.8 °F66 °F (1:53 am)26.1 °F (4:53 pm)
Humidity63.4 %100 % (2:53 am)25 % (4:53 pm)
Barometer30.10 in30.25 in (11:53 pm)29.94 in (1:53 am)
Wind Speed10.5 mph20.7 mph (2:11 am)
Wind Gust32.2 mph (2:02 am)
Weather ElementAverage
Visibility9.2 mi
Wind DirectionWNW (309.3 °)

Weather ElementTotal
Precipitation0.08 in
Heating Degree Days5 (Base 65)
Growing Degree Days10 (Base 50)
Averaged from 29 records on January 31, 2013
WEATHER CONDITIONS BREAKOUT
WIND DIRECTION BREAKOUT
WEATHER BY HOUR - JANUARY 31, 2013
[ °C ]   °F
Local TimeTemperatureDewpointHumidityBarometerVisibilityWind DirectionWind SpeedGust SpeedPrecipitationEventsConditions
1:53 AM70.0 °F66.0 °F87 %29.94 in10.0 miSW (230°)15.0 mph24.2 mphMostly Cloudy
2:02 AM66.2 °F62.6 °F88 %29.97 in10.0 miWest (280°)19.6 mph32.2 mph0.00 inRainLight Rain
2:11 AM62.6 °F59.0 °F88 %29.97 in6.0 miNW (310°)20.7 mph29.9 mph0.00 inRainRain
2:53 AM59.0 °F59.0 °F100 %29.98 in10.0 miWest (280°)12.7 mph21.9 mph0.01 inRainLight Rain
3:04 AM59.0 °F59.0 °F100 %29.99 in5.0 miWest (280°)12.7 mph0.00 inRainLight Rain
3:21 AM59.0 °F59.0 °F100 %30.00 in6.0 miWNW (290°)16.1 mph21.9 mph0.01 inRainLight Rain
3:31 AM59.0 °F57.2 °F94 %30.01 in5.0 miWNW (290°)15.0 mph0.02 inRainLight Rain
3:53 AM57.0 °F55.6 °F95 %30.01 in5.0 miNW (320°)9.2 mph0.02 inRainLight Rain
4:17 AM55.4 °F55.4 °F100 %30.01 in10.0 miNNW (330°)9.2 mph0.01 inOvercast
4:53 AM55.9 °F54.7 °F96 %30.02 in10.0 miNW (320°)6.9 mph0.01 inOvercast
5:53 AM57.0 °F55.0 °F93 %30.03 in10.0 miNW (320°)5.8 mph0.00 inOvercast
6:53 AM57.0 °F53.6 °F88 %30.06 in10.0 miNW (320°)3.5 mph0.00 inOvercast
7:53 AM57.0 °F48.2 °F72 %30.09 in10.0 miNW (320°)9.2 mphScattered Clouds
8:53 AM57.9 °F45.3 °F63 %30.12 in10.0 miNW (320°)9.2 mphScattered Clouds
9:53 AM59.0 °F45.0 °F60 %30.14 in10.0 miNW (320°)10.4 mphScattered Clouds
10:53 AM61.0 °F43.0 °F52 %30.15 in10.0 miNNW (340°)11.5 mphScattered Clouds
11:53 AM61.0 °F39.0 °F44 %30.15 in10.0 miNW (320°)6.9 mph17.3 mphMostly Cloudy
12:53 PM63.0 °F36.0 °F37 %30.14 in10.0 miNNW (330°)10.4 mphScattered Clouds
1:53 PM62.1 °F32.0 °F32 %30.14 in10.0 miWNW (290°)6.9 mph18.4 mphScattered Clouds
2:53 PM64.0 °F32.0 °F30 %30.14 in10.0 miWNW (290°)15.0 mph21.9 mphPartly Cloudy
3:53 PM64.0 °F30.9 °F29 %30.14 in10.0 miNNW (330°)15.0 mphPartly Cloudy
4:53 PM63.0 °F26.1 °F25 %30.15 in10.0 miNW (320°)10.4 mphPartly Cloudy
5:53 PM59.0 °F27.0 °F29 %30.16 in10.0 miNW (310°)10.4 mphClear
6:53 PM55.9 °F27.0 °F33 %30.17 in10.0 miNW (310°)5.8 mphClear
7:53 PM54.0 °F28.9 °F38 %30.20 in10.0 miNW (320°)6.9 mphClear
8:53 PM54.0 °F28.9 °F38 %30.22 in10.0 miNW (320°)5.8 mphClear
9:53 PM51.1 °F28.9 °F43 %30.23 in10.0 miNW (320°)4.6 mphClear
10:53 PM51.1 °F28.0 °F41 %30.24 in10.0 miNW (320°)11.5 mphPartly Cloudy
11:53 PM50.0 °F28.9 °F44 %30.25 in10.0 miNW (320°)9.2 mphPartly Cloudy
Hourly data recorded from KMCO, located miles away from Hart Lake, Florida







STORIES FROM OUR PARTNERS